Wiscasset, ME

10:39 AM EST on December 18, 2017 (GMT -0500)
Wiscasset

Weather History for KIWI - November, 2012

Change the Weather History Date:

Saturday, November 17, 2012

  Actual Average Record
Temperature  
Mean Temperature 34 °F -  
Max Temperature 45 °F 43 °F 62 °F (2006)
Min Temperature 24 °F 27 °F 10 °F (1997)
Degree Days  
Heating Degree Days 30    
Moisture  
Dew Point 23 °F    
Average Humidity 72    
Maximum Humidity 92    
Minimum Humidity 42    
Precipitation  
Precipitation 0.00 in - - ()
Sea Level Pressure  
Sea Level Pressure 30.60 in    
Wind  
Wind Speed 0 mph (NNE)    
Max Wind Speed 5 mph    
Max Gust Speed -    
Visibility 10 miles    
Events      
Averages and records for this station are not official NWS values.
T = Trace of Precipitation, MM = Missing Value Source: NWS Daily Summary

Daily Weather History Graph

Daily Weather History Graph

Search for Another Location

Airport or City:

Trip Planner

Search our weather history database for the weather conditions in past years. The results will help you decide how hot, cold, wet, or windy it might be!

Date:

Astronomy

Nov. 17, 2012 Rise Set
Actual Time 6:36 AM EST 4:10 PM EST
Civil Twilight 6:05 AM EST 4:41 PM EST
Nautical Twilight 5:30 AM EST 5:16 PM EST
Astronomical Twilight 4:56 AM EST 5:51 PM EST
Moon 10:19 AM EST (11/17) 8:16 PM EST (11/17)
Length of Visible Light 10h 36m
Length of Day
9h 33m
Waxing Crescent, 20% of the Moon is Illuminated
Nov 17
Waxing Crescent
Nov 20
First Quarter
Nov 28
Full
Dec 6
Last Quarter
Dec 13
New

Hourly Weather History & Observations

Time (EST) Temp. Windchill Dew Point Humidity Pressure Visibility Wind Dir Wind Speed Gust Speed Precip Events Conditions
12:53 AM 26.1 °F - 21.9 °F 84% 30.45 in 10.0 mi Calm Calm - N/A   Clear
1:53 AM 26.1 °F - 21.9 °F 84% 30.48 in 10.0 mi Calm Calm - N/A   Clear
2:53 AM 25.0 °F - 21.9 °F 88% 30.49 in 10.0 mi Calm Calm - N/A   Clear
3:53 AM 25.0 °F - 21.9 °F 88% 30.50 in 10.0 mi Calm Calm - N/A   Clear
4:53 AM 25.0 °F - 21.0 °F 85% 30.53 in 10.0 mi Calm Calm - N/A   Clear
5:53 AM 24.1 °F - 21.0 °F 88% 30.55 in 10.0 mi Calm Calm - N/A   Clear
6:53 AM 24.1 °F - 19.9 °F 84% 30.58 in 10.0 mi Calm Calm - N/A   Clear
7:53 AM 28.9 °F - 27.0 °F 92% 30.60 in 10.0 mi Calm Calm - N/A   Clear
8:53 AM 37.9 °F - 28.0 °F 68% 30.62 in 10.0 mi Calm Calm - N/A   Clear
9:53 AM 39.9 °F 36.7 °F 25.0 °F 55% 30.63 in 10.0 mi NNE 4.6 mph - N/A   Clear
10:53 AM 42.1 °F 39.2 °F 25.0 °F 51% 30.62 in 10.0 mi Variable 4.6 mph - N/A   Clear
11:53 AM 44.1 °F 41.5 °F 25.0 °F 47% 30.61 in 10.0 mi Variable 4.6 mph - N/A   Clear
12:53 PM 45.0 °F - 25.0 °F 46% 30.60 in 10.0 mi Calm Calm - N/A   Clear
1:53 PM 45.0 °F - 24.1 °F 44% 30.60 in 10.0 mi Calm Calm - N/A   Clear
2:53 PM 45.0 °F - 23.0 °F 42% 30.61 in 10.0 mi Calm Calm - N/A   Clear
3:53 PM 39.0 °F - 24.1 °F 55% 30.62 in 10.0 mi Calm Calm - N/A   Clear
4:53 PM 32.0 °F - 24.1 °F 73% 30.63 in 10.0 mi Calm Calm - N/A   Clear
5:53 PM 30.0 °F - 23.0 °F 75% 30.65 in 10.0 mi Calm Calm - N/A   Clear
6:53 PM 28.0 °F - 21.9 °F 78% 30.66 in 10.0 mi Calm Calm - N/A   Clear
7:53 PM 27.0 °F - 21.9 °F 81% 30.68 in 10.0 mi Calm Calm - N/A   Clear
8:53 PM 26.1 °F - 21.0 °F 81% 30.69 in 10.0 mi Calm Calm - N/A   Clear
9:53 PM 25.0 °F - 21.0 °F 85% 30.69 in 10.0 mi Calm Calm - N/A   Clear
10:53 PM 25.0 °F - 19.9 °F 81% 30.69 in 10.0 mi Calm Calm - N/A   Clear
11:53 PM 24.1 °F - 19.9 °F 84% 30.71 in 10.0 mi Calm Calm - N/A   Clear